Home   Weather   Rancagua   Past weeks

Flag for Chile Past Weather in Rancagua, Chile — Yesterday and Last 2 Weeks

Now
61 °F

Clear.


Feels Like: 61 °F
Forecast: 48 / 86 °F
Wind: 5 mph from South

Location: Pudahuel

Current Time: Dec 6, 2016 at 2:57:22 am

Latest Report: Dec 6, 2016 at 2:00 am


Visibility: 10 mi

Pressure: 29.95 "Hg (28.19 "Hg at 511m altitude)

Humidity: 55%

Dew Point: 45 °F

Location of RancaguaLocation

Past Weather in Rancagua — Graph

°F

Rancagua Temperature Yesterday

Maximum temperature yesterday: 81 °F (at 5:00 pm)
Minimum temperature yesterday: 55 °F (at 4:00 am)
Average temperature yesterday: 66 °F

High & Low Weather Summary for the Past Weeks

 TemperatureHumidityPressure
High93 °F (Nov 29, 4:00 pm)100% (Dec 3, 7:00 am)30.12 "Hg (Dec 3, 7:00 am)
Low50 °F (Nov 26, 7:00 am)16% (Nov 28, 4:00 pm)29.80 "Hg (Nov 29, 3:00 pm)
Average66 °F58%29.97 "Hg
* Reported Nov 21 2:00 am — Dec 6 2:00 am, Rancagua, Weather by CustomWeather, © 2016

Note: Actual official high and low records may vary slightly from our data, if they occured in-between our weather recording intervals... More about our weather records

Advertising

Rancagua Weather History for the Previous 24 Hours

Scroll right to see more
 ConditionsComfort  
Time TempWeatherWind HumidityBarometerVisibility
2:00 am
Tue, Dec 6
61 °FClear.5 mph55%29.95 "Hg10 mi
1:00 am63 °FClear.6 mph52%29.98 "Hg10 mi
12:00 am64 °FClear.8 mph52%29.98 "Hg10 mi
11:00 pm
Mon, Dec 5
66 °FPassing clouds.8 mph46%29.98 "HgN/A
10:00 pm70 °FClear.12 mph40%29.98 "Hg10 mi
9:00 pm73 °FPassing clouds.10 mph33%29.95 "HgN/A
8:00 pm77 °FSunny.13 mph28%29.95 "Hg10 mi
7:00 pm79 °FSunny.14 mph26%29.95 "Hg10 mi
6:00 pm81 °FPassing clouds.13 mph26%29.95 "HgN/A
5:00 pm81 °FPassing clouds.12 mph28%29.98 "HgN/A
4:00 pm79 °FPassing clouds.10 mph34%29.98 "HgN/A
3:00 pm75 °FPassing clouds.8 mph39%30.01 "HgN/A
2:00 pm75 °FPassing clouds.7 mph39%30.01 "HgN/A
1:00 pm72 °FPassing clouds.9 mph44%30.04 "HgN/A
12:00 pm68 °FPassing clouds.5 mph53%30.04 "HgN/A
11:00 am64 °FPassing clouds.2 mph56%30.07 "HgN/A
10:00 am61 °FPartly sunny.2 mph63%30.07 "HgN/A
9:00 am57 °FPartly sunny.6 mph72%30.07 "HgN/A
8:00 am55 °FPassing clouds.6 mph77%30.07 "HgN/A
7:00 am55 °FSunny.9 mph72%30.04 "Hg10 mi
6:00 am55 °FClear.6 mph72%30.01 "Hg10 mi
5:00 am55 °FClear.6 mph72%30.01 "Hg10 mi
4:00 am55 °FClear.2 mph72%30.01 "Hg10 mi
3:00 am57 °FPassing clouds.5 mph67%30.04 "HgN/A
2:00 am57 °FPassing clouds.6 mph72%30.04 "HgN/A
Weather by CustomWeather, © 2016

See weather overviewHow to use our weather pages